Powrót do katalogu

ONEWEB-0270

AktywnyŁącznośćPO
NORAD 48988·PAYLOAD·🇬🇧 United Kingdom

Wystrzelony Jul 1, 2021 z Vostochny Cosmodrome

Loading…

Następne Przeloty (najbliższe 24 godziny)

TLE

ŚwieżeSource: CelesTrak SupGP

Epoka: Sep 14, 2026, 17:10 UTC

1 48988C 21060X   26257.71546713  .00003481  00000+0  91179-2 0  2573
2 48988  87.9143 211.0038 0002006  69.9007 325.9065 13.16590679    13

Śledź ONEWEB-0270 w czasie rzeczywistym z AllMySat

Download on the App Store